Time,TemperatureF,DewpointF,PressureIn,WindDirection,WindDirectionDegrees,WindSpeedMPH,WindSpeedGustMPH,Humidity,HourlyPrecipIn,Conditions,Clouds,dailyrainin,SolarRadiationWatts/m^2,SoftwareType,DateUTC
2013-03-10 00:01:00,27.9,25.1,30.34,ENE,58,0.0,0.0,89,0.00,,CLR,0.00,0.00,VWS V14.01,2013-03-10 05:01:00,
2013-03-10 00:11:00,28.1,25.5,30.34,ENE,58,0.0,0.0,90,0.00,,CLR,0.00,0.00,VWS V14.01,2013-03-10 05:11:00,
2013-03-10 00:21:00,27.6,25.1,30.33,ENE,58,1.0,3.0,90,0.00,,CLR,0.00,0.00,VWS V14.01,2013-03-10 05:21:00,
2013-03-10 00:31:00,27.0,24.5,30.34,ENE,58,1.0,2.0,90,0.00,,CLR,0.00,0.00,VWS V14.01,2013-03-10 05:31:00,
2013-03-10 00:41:00,26.6,24.3,30.34,ENE,58,0.0,3.0,91,0.00,,CLR,0.00,0.00,VWS V14.01,2013-03-10 05:41:00,
2013-03-10 00:51:00,26.9,24.9,30.34,East,86,0.0,3.0,92,0.00,,CLR,0.00,0.00,VWS V14.01,2013-03-10 05:51:00,
2013-03-10 01:00:00,25.4,23.7,30.35,East,86,2.0,3.0,93,0.00,,CLR,0.00,0.00,VWS V14.01,2013-03-10 06:00:00,
2013-03-10 01:01:00,27.0,25.0,30.35,East,86,0.0,0.0,92,0.00,,CLR,0.00,0.00,VWS V14.01,2013-03-10 06:01:00,
2013-03-10 01:10:00,25.0,23.3,30.35,East,86,0.0,2.0,93,0.00,,CLR,0.00,0.00,VWS V14.01,2013-03-10 06:10:00,
2013-03-10 01:11:00,26.4,24.1,30.35,East,86,0.0,2.0,91,0.00,,CLR,0.00,0.00,VWS V14.01,2013-03-10 06:11:00,
2013-03-10 01:20:00,24.8,23.3,30.35,East,86,0.0,0.0,94,0.00,,CLR,0.00,0.00,VWS V14.01,2013-03-10 06:20:00,
2013-03-10 01:21:00,26.4,24.4,30.35,East,86,0.0,0.0,92,0.00,,CLR,0.00,0.00,VWS V14.01,2013-03-10 06:21:00,
2013-03-10 01:30:00,24.5,23.0,30.35,East,86,0.0,2.0,94,0.00,,CLR,0.00,0.00,VWS V14.01,2013-03-10 06:30:00,
2013-03-10 01:31:00,26.0,24.0,30.35,East,86,0.0,0.0,92,0.00,,CLR,0.00,0.00,VWS V14.01,2013-03-10 06:31:00,
2013-03-10 01:40:00,24.5,23.0,30.35,East,86,0.0,0.0,94,0.00,,CLR,0.00,0.00,VWS V14.01,2013-03-10 06:40:00,
2013-03-10 01:41:00,26.3,24.6,30.35,East,86,1.0,2.0,93,0.00,,CLR,0.00,0.00,VWS V14.01,2013-03-10 06:41:00,
2013-03-10 01:50:00,24.5,23.0,30.34,East,86,0.0,0.0,94,0.00,,CLR,0.00,0.00,VWS V14.01,2013-03-10 06:50:00,
2013-03-10 01:51:00,25.8,24.1,30.34,East,86,0.0,2.0,93,0.00,,CLR,0.00,0.00,VWS V14.01,2013-03-10 06:51:00,
2013-03-10 03:00:00,24.2,23.0,30.34,East,86,0.0,1.0,95,0.00,,CLR,0.00,0.00,VWS V14.01,2013-03-10 07:00:00,
2013-03-10 03:10:00,24.2,23.0,30.34,East,86,0.0,2.0,95,0.00,,CLR,0.00,0.00,VWS V14.01,2013-03-10 07:10:00,
2013-03-10 03:20:00,24.1,22.9,30.35,East,86,0.0,1.0,95,0.00,,CLR,0.00,0.00,VWS V14.01,2013-03-10 07:20:00,
2013-03-10 03:30:00,23.8,22.6,30.35,East,86,0.0,0.0,95,0.00,,CLR,0.00,0.00,VWS V14.01,2013-03-10 07:30:00,
2013-03-10 03:40:00,23.9,22.7,30.35,East,86,0.0,0.0,95,0.00,,CLR,0.00,0.00,VWS V14.01,2013-03-10 07:40:00,
2013-03-10 03:50:00,23.9,22.7,30.35,East,86,0.0,0.0,95,0.00,,CLR,0.00,0.00,VWS V14.01,2013-03-10 07:50:00,
2013-03-10 04:00:00,23.9,22.7,30.35,East,86,1.0,2.0,95,0.00,,CLR,0.00,0.00,VWS V14.01,2013-03-10 08:00:00,
2013-03-10 04:10:00,23.3,21.8,30.35,East,86,0.0,2.0,94,0.00,,CLR,0.00,0.00,VWS V14.01,2013-03-10 08:10:00,
2013-03-10 04:20:00,23.3,22.1,30.35,East,86,0.0,0.0,95,0.00,,CLR,0.00,0.00,VWS V14.01,2013-03-10 08:20:00,
2013-03-10 04:30:00,23.2,22.0,30.35,East,86,0.0,3.0,95,0.00,,CLR,0.00,0.00,VWS V14.01,2013-03-10 08:30:00,
2013-03-10 04:40:00,23.0,21.8,30.35,East,86,0.0,0.0,95,0.00,,CLR,0.00,0.00,VWS V14.01,2013-03-10 08:40:00,
2013-03-10 04:50:00,22.7,21.2,30.35,East,86,0.0,0.0,94,0.00,,CLR,0.00,0.00,VWS V14.01,2013-03-10 08:50:00,
2013-03-10 05:00:00,22.9,21.7,30.35,East,86,0.0,0.0,95,0.00,,CLR,0.00,0.00,VWS V14.01,2013-03-10 09:00:00,
2013-03-10 05:10:00,22.7,21.5,30.35,East,86,1.0,2.0,95,0.00,,CLR,0.00,0.00,VWS V14.01,2013-03-10 09:10:00,
2013-03-10 05:20:00,22.4,21.2,30.35,East,86,0.0,1.0,95,0.00,,CLR,0.00,0.00,VWS V14.01,2013-03-10 09:20:00,
2013-03-10 05:30:00,22.5,21.3,30.35,East,86,0.0,0.0,95,0.00,,CLR,0.00,0.00,VWS V14.01,2013-03-10 09:30:00,
2013-03-10 05:40:00,22.2,20.7,30.35,East,86,0.0,2.0,94,0.00,,CLR,0.00,0.00,VWS V14.01,2013-03-10 09:40:00,
2013-03-10 05:50:00,22.1,20.9,30.37,East,86,0.0,0.0,95,0.00,,CLR,0.00,0.00,VWS V14.01,2013-03-10 09:50:00,
2013-03-10 06:10:00,22.2,21.0,30.37,East,86,0.0,0.0,95,0.00,,CLR,0.00,0.00,VWS V14.01,2013-03-10 10:10:00,
2013-03-10 06:20:00,22.2,21.0,30.37,East,86,1.0,2.0,95,0.00,,CLR,0.00,9.00,VWS V14.01,2013-03-10 10:20:00,
2013-03-10 06:30:00,21.8,20.3,30.38,East,86,0.0,2.0,94,0.00,,CLR,0.00,14.00,VWS V14.01,2013-03-10 10:30:00,
2013-03-10 06:40:00,21.6,20.1,30.38,East,86,0.0,1.0,94,0.00,,CLR,0.00,21.00,VWS V14.01,2013-03-10 10:40:00,
2013-03-10 06:50:00,22.1,20.9,30.39,East,86,0.0,0.0,95,0.00,,CLR,0.00,32.00,VWS V14.01,2013-03-10 10:50:00,
2013-03-10 07:00:00,22.2,21.0,30.39,East,86,3.0,3.0,95,0.00,,CLR,0.00,37.00,VWS V14.01,2013-03-10 11:00:00,
2013-03-10 07:10:00,22.2,20.7,30.39,East,86,1.0,3.0,94,0.00,,CLR,0.00,53.00,VWS V14.01,2013-03-10 11:10:00,
2013-03-10 07:20:00,22.5,21.3,30.39,East,86,0.0,2.0,95,0.00,,CLR,0.00,60.00,VWS V14.01,2013-03-10 11:20:00,
2013-03-10 07:30:00,23.2,22.0,30.39,East,86,0.0,0.0,95,0.00,,CLR,0.00,100.00,VWS V14.01,2013-03-10 11:30:00,
2013-03-10 07:40:00,23.9,22.7,30.39,East,86,0.0,0.0,95,0.00,,CLR,0.00,54.00,VWS V14.01,2013-03-10 11:40:00,
2013-03-10 07:50:00,24.4,23.2,30.39,East,86,1.0,2.0,95,0.00,,CLR,0.00,47.00,VWS V14.01,2013-03-10 11:50:00,
2013-03-10 08:00:00,24.8,23.6,30.39,East,86,2.0,3.0,95,0.00,,CLR,0.00,46.00,VWS V14.01,2013-03-10 12:00:00,
2013-03-10 08:10:00,25.3,23.8,30.39,East,86,0.0,2.0,94,0.00,,CLR,0.00,49.00,VWS V14.01,2013-03-10 12:10:00,
2013-03-10 08:20:00,26.0,24.5,30.39,East,86,0.0,0.0,94,0.00,,CLR,0.00,60.00,VWS V14.01,2013-03-10 12:20:00,
2013-03-10 08:30:00,26.9,25.1,30.39,East,86,0.0,0.0,93,0.00,,CLR,0.00,77.00,VWS V14.01,2013-03-10 12:30:00,
2013-03-10 08:40:00,27.8,25.8,30.39,East,86,0.0,2.0,92,0.00,,CLR,0.00,60.00,VWS V14.01,2013-03-10 12:40:00,
2013-03-10 08:50:00,28.7,26.1,30.39,East,86,3.0,4.0,90,0.00,,CLR,0.00,51.00,VWS V14.01,2013-03-10 12:50:00,
2013-03-10 09:00:00,28.8,25.7,30.39,East,84,3.0,3.0,88,0.00,,CLR,0.00,56.00,VWS V14.01,2013-03-10 13:00:00,
2013-03-10 09:10:00,30.1,26.7,30.39,NE,56,4.0,4.0,87,0.00,,CLR,0.00,58.00,VWS V14.01,2013-03-10 13:10:00,
2013-03-10 09:20:00,31.0,26.5,30.39,NE,51,3.0,5.0,83,0.00,,CLR,0.00,100.00,VWS V14.01,2013-03-10 13:20:00,
2013-03-10 09:30:00,32.2,27.0,30.39,NE,49,5.0,5.0,81,0.00,,CLR,0.00,156.00,VWS V14.01,2013-03-10 13:30:00,
2013-03-10 09:40:00,34.3,25.5,30.39,NE,46,5.0,7.0,70,0.00,,CLR,0.00,202.00,VWS V14.01,2013-03-10 13:40:00,
2013-03-10 09:50:00,35.5,26.4,30.37,NE,43,5.0,6.0,69,0.00,,CLR,0.00,172.00,VWS V14.01,2013-03-10 13:50:00,
2013-03-10 10:00:00,35.8,26.3,30.37,NE,43,4.0,6.0,68,0.00,,CLR,0.00,132.00,VWS V14.01,2013-03-10 14:00:00,
2013-03-10 10:10:00,35.3,26.5,30.37,NE,43,3.0,6.0,70,0.00,,CLR,0.00,338.00,VWS V14.01,2013-03-10 14:10:00,
2013-03-10 10:20:00,35.3,26.5,30.37,NE,43,4.0,6.0,70,0.00,,CLR,0.00,635.00,VWS V14.01,2013-03-10 14:20:00,
2013-03-10 10:30:00,35.8,26.6,30.36,NE,43,4.0,5.0,69,0.00,,CLR,0.00,663.00,VWS V14.01,2013-03-10 14:30:00,
2013-03-10 10:40:00,36.8,26.5,30.36,NE,43,5.0,6.0,66,0.00,,CLR,0.00,668.00,VWS V14.01,2013-03-10 14:40:00,
2013-03-10 10:50:00,37.6,26.5,30.35,NE,43,4.0,6.0,64,0.00,,CLR,0.00,684.00,VWS V14.01,2013-03-10 14:50:00,
2013-03-10 11:00:00,38.6,26.3,30.35,NNE,27,5.0,6.0,61,0.00,,CLR,0.00,670.00,VWS V14.01,2013-03-10 15:00:00,
2013-03-10 11:10:00,39.2,26.5,30.35,NNE,28,3.0,6.0,60,0.00,,CLR,0.00,708.00,VWS V14.01,2013-03-10 15:10:00,
2013-03-10 11:20:00,39.8,25.8,30.35,NE,41,6.0,8.0,57,0.00,,CLR,0.00,701.00,VWS V14.01,2013-03-10 15:20:00,
2013-03-10 11:30:00,39.9,25.5,30.34,NE,37,5.0,9.0,56,0.00,,CLR,0.00,710.00,VWS V14.01,2013-03-10 15:30:00,
2013-03-10 11:40:00,40.6,25.3,30.34,NE,38,7.0,9.0,54,0.00,,CLR,0.00,717.00,VWS V14.01,2013-03-10 15:40:00,
2013-03-10 11:50:00,41.1,24.8,30.33,NNE,32,5.0,7.0,52,0.00,,CLR,0.00,721.00,VWS V14.01,2013-03-10 15:50:00,
2013-03-10 12:00:00,41.8,25.5,30.33,NNE,32,5.0,7.0,52,0.00,,CLR,0.00,703.00,VWS V14.01,2013-03-10 16:00:00,
2013-03-10 12:10:00,41.9,25.6,30.33,NNE,32,8.0,8.0,52,0.00,,CLR,0.00,703.00,VWS V14.01,2013-03-10 16:10:00,
2013-03-10 12:20:00,42.6,26.2,30.32,NE,45,5.0,8.0,52,0.00,,CLR,0.00,700.00,VWS V14.01,2013-03-10 16:20:00,
2013-03-10 12:30:00,42.5,24.7,30.32,NNE,28,4.0,8.0,49,0.00,,CLR,0.00,696.00,VWS V14.01,2013-03-10 16:30:00,
2013-03-10 12:40:00,42.8,25.0,30.32,NNE,28,4.0,7.0,49,0.00,,CLR,0.00,686.00,VWS V14.01,2013-03-10 16:40:00,
2013-03-10 12:50:00,42.9,24.6,30.32,NNE,29,5.0,6.0,48,0.00,,CLR,0.00,679.00,VWS V14.01,2013-03-10 16:50:00,
2013-03-10 13:00:00,43.2,24.9,30.30,NNE,29,3.0,6.0,48,0.00,,CLR,0.00,666.00,VWS V14.01,2013-03-10 17:00:00,
2013-03-10 13:10:00,43.9,25.5,30.30,NNE,29,3.0,5.0,48,0.00,,CLR,0.00,570.00,VWS V14.01,2013-03-10 17:10:00,
2013-03-10 13:20:00,44.2,25.3,30.30,NNE,33,3.0,6.0,47,0.00,,CLR,0.00,439.00,VWS V14.01,2013-03-10 17:20:00,
2013-03-10 13:30:00,44.2,26.3,30.30,NNE,30,2.0,7.0,49,0.00,,CLR,0.00,490.00,VWS V14.01,2013-03-10 17:30:00,
2013-03-10 13:40:00,44.5,25.0,30.30,NNE,31,4.0,6.0,46,0.00,,CLR,0.00,508.00,VWS V14.01,2013-03-10 17:40:00,
2013-03-10 14:40:00,46.1,26.0,30.27,NNE,31,6.0,7.0,45,0.00,,CLR,0.00,387.00,VWS V14.01,2013-03-10 18:40:00,
2013-03-10 14:50:00,46.4,26.2,30.27,NNE,25,5.0,7.0,45,0.00,,CLR,0.00,387.00,VWS V14.01,2013-03-10 18:50:00,
2013-03-10 14:51:00,44.8,25.3,30.29,NE,34,4.0,7.0,46,0.00,,CLR,0.00,568.00,VWS V14.01,2013-03-10 18:51:00,
2013-03-10 15:00:00,45.1,26.6,30.27,NNE,27,4.0,6.0,48,0.00,,CLR,0.00,206.00,VWS V14.01,2013-03-10 19:00:00,
2013-03-10 15:01:00,45.1,25.6,30.29,NNE,27,4.0,7.0,46,0.00,,CLR,0.00,526.00,VWS V14.01,2013-03-10 19:01:00,
2013-03-10 15:10:00,44.8,25.8,30.27,NE,54,5.0,6.0,47,0.00,,CLR,0.00,146.00,VWS V14.01,2013-03-10 19:10:00,
2013-03-10 15:11:00,45.2,25.7,30.29,NNE,29,2.0,6.0,46,0.00,,CLR,0.00,540.00,VWS V14.01,2013-03-10 19:11:00,
2013-03-10 15:21:00,46.0,25.3,30.28,NNE,29,4.0,9.0,44,0.00,,CLR,0.00,508.00,VWS V14.01,2013-03-10 19:21:00,
2013-03-10 15:30:00,45.8,27.2,30.26,NE,44,0.0,4.0,48,0.00,,CLR,0.00,399.00,VWS V14.01,2013-03-10 19:30:00,
2013-03-10 15:31:00,46.1,26.5,30.27,NNE,30,5.0,7.0,46,0.00,,CLR,0.00,431.00,VWS V14.01,2013-03-10 19:31:00,
2013-03-10 15:40:00,46.7,26.5,30.26,NE,44,2.0,3.0,45,0.00,,CLR,0.00,223.00,VWS V14.01,2013-03-10 19:40:00,
2013-03-10 16:00:00,46.0,26.9,30.27,NE,44,0.0,4.0,47,0.00,,CLR,0.00,199.00,VWS V14.01,2013-03-10 20:00:00,
2013-03-10 16:20:00,45.8,27.2,30.26,West,266,5.0,8.0,48,0.00,,CLR,0.00,114.00,VWS V14.01,2013-03-10 20:20:00,
2013-03-10 16:21:00,45.7,27.6,30.26,NE,46,0.0,5.0,49,0.00,,CLR,0.00,381.00,VWS V14.01,2013-03-10 20:21:00,
2013-03-10 16:51:00,46.5,25.8,30.26,NE,44,3.0,4.0,44,0.00,,CLR,0.00,283.00,VWS V14.01,2013-03-10 20:51:00,
2013-03-10 17:12:00,45.8,26.7,30.27,West,266,4.0,5.0,47,0.00,,CLR,0.00,128.00,VWS V14.01,2013-03-10 21:12:00,
2013-03-10 17:31:00,45.7,27.1,30.25,WSW,250,2.0,6.0,48,0.00,,CLR,0.00,77.00,VWS V14.01,2013-03-10 21:31:00,
2013-03-10 17:41:00,45.5,27.5,30.25,West,263,4.0,7.0,49,0.00,,CLR,0.00,77.00,VWS V14.01,2013-03-10 21:41:00,
2013-03-10 17:50:00,45.5,27.5,30.25,West,266,4.0,4.0,49,0.00,,CLR,0.00,70.00,VWS V14.01,2013-03-10 21:50:00,
2013-03-10 18:00:00,43.2,27.2,30.25,West,266,4.0,4.0,53,0.00,,CLR,0.00,37.00,VWS V14.01,2013-03-10 22:00:00,
2013-03-10 18:10:00,42.6,27.6,30.25,West,266,4.0,4.0,55,0.00,,CLR,0.00,21.00,VWS V14.01,2013-03-10 22:10:00,
2013-03-10 18:20:00,42.2,27.6,30.25,West,266,4.0,4.0,56,0.00,,CLR,0.00,16.00,VWS V14.01,2013-03-10 22:20:00,
2013-03-10 18:30:00,41.5,27.8,30.26,WSW,252,0.0,4.0,58,0.00,,CLR,0.00,12.00,VWS V14.01,2013-03-10 22:30:00,
2013-03-10 18:40:00,41.2,28.0,30.26,WSW,252,0.0,2.0,59,0.00,,CLR,0.00,5.00,VWS V14.01,2013-03-10 22:40:00,
2013-03-10 18:50:00,40.5,28.1,30.26,WSW,252,0.0,2.0,61,0.00,,CLR,0.00,0.00,VWS V14.01,2013-03-10 22:50:00,
2013-03-10 19:00:00,40.1,28.9,30.26,WSW,252,0.0,0.0,64,0.00,,CLR,0.00,0.00,VWS V14.01,2013-03-10 23:00:00,
2013-03-10 19:10:00,40.2,28.6,30.26,WSW,253,0.0,1.0,63,0.00,,CLR,0.00,0.00,VWS V14.01,2013-03-10 23:10:00,
2013-03-10 19:20:00,39.6,28.8,30.27,WSW,253,0.0,0.0,65,0.00,,CLR,0.00,0.00,VWS V14.01,2013-03-10 23:20:00,
2013-03-10 19:30:00,39.2,28.8,30.27,WSW,253,0.0,1.0,66,0.00,,CLR,0.00,0.00,VWS V14.01,2013-03-10 23:30:00,
2013-03-10 19:40:00,39.2,28.8,30.27,West,276,2.0,6.0,66,0.00,,FEW120,0.00,0.00,VWS V14.01,2013-03-10 23:40:00,
2013-03-10 19:50:00,38.9,28.5,30.28,West,276,0.0,2.0,66,0.00,,FEW120,0.00,0.00,VWS V14.01,2013-03-10 23:50:00,
2013-03-10 20:00:00,38.2,28.2,30.28,West,276,2.0,3.0,67,0.00,,FEW120,0.00,0.00,VWS V14.01,2013-03-11 00:00:00,
2013-03-10 20:10:00,37.3,28.4,30.28,West,276,0.0,2.0,70,0.00,,BKN110,0.00,0.00,VWS V14.01,2013-03-11 00:10:00,
2013-03-10 20:20:00,36.9,28.4,30.29,West,276,0.0,0.0,71,0.00,,BKN110,0.00,0.00,VWS V14.01,2013-03-11 00:20:00,
2013-03-10 20:30:00,37.0,28.8,30.29,West,276,0.0,2.0,72,0.00,,BKN110,0.00,0.00,VWS V14.01,2013-03-11 00:30:00,
2013-03-10 20:40:00,36.9,29.1,30.29,West,276,0.0,1.0,73,0.00,,FEW120,0.00,0.00,VWS V14.01,2013-03-11 00:40:00,
2013-03-10 20:50:00,37.0,28.8,30.29,West,276,0.0,1.0,72,0.00,,FEW120,0.00,0.00,VWS V14.01,2013-03-11 00:50:00,
2013-03-10 21:00:00,36.5,28.7,30.28,West,276,0.0,1.0,73,0.00,,FEW120,0.00,0.00,VWS V14.01,2013-03-11 01:00:00,
2013-03-10 21:10:00,36.3,29.1,30.28,West,276,2.0,4.0,75,0.00,,BKN120,0.00,0.00,VWS V14.01,2013-03-11 01:10:00,
2013-03-10 21:20:00,36.0,28.9,30.28,West,276,0.0,4.0,75,0.00,,BKN120,0.00,0.00,VWS V14.01,2013-03-11 01:20:00,
2013-03-10 21:30:00,35.8,29.0,30.27,West,276,0.0,0.0,76,0.00,,BKN120,0.00,0.00,VWS V14.01,2013-03-11 01:30:00,
2013-03-10 21:40:00,35.5,29.0,30.27,West,276,0.0,2.0,77,0.00,,BKN110,0.00,0.00,VWS V14.01,2013-03-11 01:40:00,
2013-03-10 21:50:00,34.6,29.1,30.26,West,276,2.0,2.0,80,0.00,,BKN110,0.00,0.00,VWS V14.01,2013-03-11 01:50:00,
2013-03-10 22:00:00,35.0,29.2,30.28,West,262,3.0,7.0,79,0.00,,BKN110,0.00,0.00,VWS V14.01,2013-03-11 02:00:00,
2013-03-10 22:10:00,34.7,29.2,30.28,West,265,1.0,4.0,80,0.00,,BKN120,0.00,0.00,VWS V14.01,2013-03-11 02:10:00,
2013-03-10 22:20:00,34.4,29.2,30.29,West,265,0.0,3.0,81,0.00,,BKN120,0.00,0.00,VWS V14.01,2013-03-11 02:20:00,
2013-03-10 22:30:00,34.6,29.4,30.29,NNE,24,3.0,4.0,81,0.00,,BKN120,0.00,0.00,VWS V14.01,2013-03-11 02:30:00,
2013-03-10 22:40:00,34.0,29.4,30.29,NNE,24,0.0,3.0,83,0.00,,CLR,0.00,0.00,VWS V14.01,2013-03-11 02:40:00,
2013-03-10 22:50:00,33.5,29.2,30.28,NNE,24,0.0,0.0,84,0.00,,CLR,0.00,0.00,VWS V14.01,2013-03-11 02:50:00,
2013-03-10 23:00:00,33.4,29.4,30.29,NNE,24,0.0,3.0,85,0.00,,CLR,0.00,0.00,VWS V14.01,2013-03-11 03:00:00,
2013-03-10 23:10:00,32.7,29.0,30.29,NNE,24,0.0,0.0,86,0.00,,CLR,0.00,0.00,VWS V14.01,2013-03-11 03:10:00,
2013-03-10 23:20:00,32.5,29.1,30.27,NNE,24,0.0,0.0,87,0.00,,CLR,0.00,0.00,VWS V14.01,2013-03-11 03:20:00,
2013-03-10 23:30:00,32.5,29.4,30.26,NNE,24,0.0,0.0,88,0.00,,CLR,0.00,0.00,VWS V14.01,2013-03-11 03:30:00,
2013-03-10 23:40:00,32.5,29.1,30.26,NNE,24,1.0,2.0,87,0.00,,FEW120,0.00,0.00,VWS V14.01,2013-03-11 03:40:00,
2013-03-10 23:50:00,32.8,29.4,30.28,NW,309,0.0,6.0,87,0.00,,FEW120,0.00,0.00,VWS V14.01,2013-03-11 03:50:00,